When you browse on this site, cookies collect data to enhance your experience and personalize the content and advertising you see.
Visit our Privacy Policy to learn more. By continuing to use the site, you agree to this use of cookies and data.
  • En España
  • Lista de países
  • Para 7 días
  • Temperatura del agua
  • El tiempo en el mapa
  • Informadores
  • user-avatar
    Iniciar sesión

    Tiempo cada hora Georgetown

    Hoy, 17 Febrero, Lunes

    Tiempo Temperatura Precipitaciones Viento Presión Humedad
    00:00 +23°C° 0 mm 8 mps 735 mmHg 33%
    01:00 +23°C° 0 mm 9 mps 735 mmHg 34%
    02:00 +22°C° 0 mm 9 mps 734 mmHg 35%
    03:00 +22°C° 0 mm 9 mps 734 mmHg 36%
    04:00 +21°C° 0 mm 9 mps 734 mmHg 38%
    05:00 +21°C° 0 mm 9 mps 735 mmHg 38%
    06:00 +21°C° 0 mm 9 mps 735 mmHg 39%
    07:00 +21°C° 0 mm 10 mps 736 mmHg 39%
    08:00 +23°C° 0 mm 9 mps 736 mmHg 36%
    09:00 +26°C° 0 mm 9 mps 736 mmHg 34%
    10:00 +27°C° 0 mm 8 mps 736 mmHg 31%
    11:00 +29°C° 0 mm 7 mps 736 mmHg 30%
    12:00 +30°C° 0 mm 5 mps 735 mmHg 29%
    13:00 +32°C° 0 mm 4 mps 734 mmHg 28%
    14:00 +33°C° 0 mm 3 mps 734 mmHg 28%
    15:00 +33°C° 0 mm 3 mps 733 mmHg 28%
    16:00 +32°C° 0 mm 2 mps 733 mmHg 29%
    17:00 +31°C° 0 mm 3 mps 733 mmHg 30%
    18:00 +29°C° 0 mm 4 mps 733 mmHg 30%
    19:00 +28°C° 0 mm 5 mps 733 mmHg 31%
    20:00 +27°C° 0 mm 6 mps 734 mmHg 32%
    21:00 +26°C° 0 mm 6 mps 734 mmHg 33%
    22:00 +24°C° 0 mm 7 mps 734 mmHg 34%
    23:00 +24°C° 0 mm 7 mps 734 mmHg 34%

    Mañana, 18 Febrero, Martes

    Tiempo Temperatura Precipitaciones Viento Presión Humedad
    00:00 +23°C° 0 mm 7 mps 734 mmHg 34%
    01:00 +23°C° 0 mm 8 mps 734 mmHg 34%
    02:00 +22°C° 0 mm 8 mps 734 mmHg 34%
    03:00 +22°C° 0 mm 8 mps 734 mmHg 34%
    04:00 +21°C° 0 mm 8 mps 734 mmHg 35%
    05:00 +21°C° 0 mm 8 mps 734 mmHg 35%
    06:00 +21°C° 0 mm 8 mps 735 mmHg 35%
    07:00 +20°C° 0 mm 8 mps 735 mmHg 36%
    08:00 +23°C° 0 mm 8 mps 736 mmHg 34%
    09:00 +26°C° 0 mm 8 mps 736 mmHg 32%
    10:00 +28°C° 0 mm 8 mps 736 mmHg 30%
    11:00 +29°C° 0 mm 6 mps 736 mmHg 29%
    12:00 +30°C° 0 mm 5 mps 735 mmHg 29%
    13:00 +31°C° 0 mm 3 mps 734 mmHg 29%
    14:00 +31°C° 0 mm 3 mps 734 mmHg 30%
    15:00 +31°C° 0 mm 2 mps 733 mmHg 31%
    16:00 +31°C° 0 mm 2 mps 733 mmHg 32%
    17:00 +30°C° 0 mm 3 mps 733 mmHg 33%
    18:00 +29°C° 0 mm 3 mps 734 mmHg 33%
    19:00 +28°C° 0 mm 4 mps 734 mmHg 34%
    20:00 +27°C° 0 mm 5 mps 734 mmHg 33%
    21:00 +26°C° 0 mm 6 mps 735 mmHg 32%
    22:00 +24°C° 0 mm 7 mps 735 mmHg 31%
    23:00 +24°C° 0 mm 7 mps 735 mmHg 32%

    Pasado mañana, 19 Febrero, Miércoles

    Tiempo Temperatura Precipitaciones Viento Presión Humedad
    00:00 +23°C° 0 mm 7 mps 735 mmHg 33%
    01:00 +23°C° 0 mm 7 mps 735 mmHg 34%
    02:00 +22°C° 0 mm 7 mps 735 mmHg 34%
    03:00 +22°C° 0 mm 7 mps 735 mmHg 35%
    04:00 +22°C° 0 mm 7 mps 735 mmHg 35%
    05:00 +21°C° 0 mm 8 mps 735 mmHg 36%
    06:00 +21°C° 0 mm 8 mps 735 mmHg 36%
    07:00 +21°C° 0 mm 8 mps 735 mmHg 37%
    08:00 +23°C° 0 mm 8 mps 736 mmHg 35%
    09:00 +26°C° 0 mm 8 mps 736 mmHg 33%
    10:00 +28°C° 0 mm 8 mps 736 mmHg 30%
    11:00 +29°C° 0 mm 7 mps 736 mmHg 30%
    12:00 +30°C° 0 mm 5 mps 735 mmHg 29%
    13:00 +32°C° 0 mm 4 mps 734 mmHg 28%
    14:00 +31°C° 0 mm 3 mps 734 mmHg 29%
    15:00 +31°C° 0 mm 3 mps 733 mmHg 29%
    16:00 +32°C° 0 mm 2 mps 733 mmHg 30%
    17:00 +30°C° 0 mm 2 mps 733 mmHg 31%
    18:00 +29°C° 0 mm 3 mps 733 mmHg 33%
    19:00 +27°C° 0 mm 4 mps 733 mmHg 35%
    20:00 +27°C° 0 mm 5 mps 734 mmHg 34%
    21:00 +26°C° 0 mm 6 mps 734 mmHg 33%
    22:00 +24°C° 0 mm 8 mps 735 mmHg 33%
    23:00 +23°C° 0 mm 8 mps 735 mmHg 33%

    20 Febrero, Jueves

    Tiempo Temperatura Precipitaciones Viento Presión Humedad
    00:00 +23°C° 0 mm 9 mps 734 mmHg 33%
    01:00 +22°C° 0 mm 9 mps 734 mmHg 34%
    02:00 +22°C° 0 mm 9 mps 734 mmHg 34%
    03:00 +21°C° 0 mm 9 mps 734 mmHg 35%
    04:00 +21°C° 0 mm 9 mps 734 mmHg 35%
    05:00 +19°C° 0 mm 9 mps 734 mmHg 36%
    06:00 +19°C° 0 mm 9 mps 734 mmHg 36%
    07:00 +19°C° 0 mm 9 mps 735 mmHg 37%
    08:00 +21°C° 0 mm 9 mps 735 mmHg 35%
    09:00 +23°C° 0 mm 9 mps 735 mmHg 32%
    10:00 +26°C° 0 mm 9 mps 736 mmHg 30%
    11:00 +28°C° 0 mm 8 mps 735 mmHg 30%
    12:00 +29°C° 0 mm 6 mps 734 mmHg 30%
    13:00 +30°C° 0 mm 4 mps 734 mmHg 30%
    14:00 +31°C° 0 mm 3 mps 733 mmHg 30%
    15:00 +31°C° 0 mm 2 mps 733 mmHg 31%
    16:00 +32°C° 0 mm 2 mps 732 mmHg 31%
    17:00 +30°C° 0 mm 3 mps 732 mmHg 31%
    18:00 +29°C° 0 mm 4 mps 732 mmHg 31%
    19:00 +28°C° 0 mm 5 mps 733 mmHg 31%
    20:00 +27°C° 0 mm 6 mps 733 mmHg 31%
    21:00 +26°C° 0 mm 6 mps 733 mmHg 31%
    22:00 +26°C° 0 mm 7 mps 734 mmHg 31%
    23:00 +24°C° 0 mm 8 mps 734 mmHg 31%

    21 Febrero, Viernes

    Tiempo Temperatura Precipitaciones Viento Presión Humedad
    00:00 +23°C° 0 mm 8 mps 733 mmHg 32%
    01:00 +23°C° 0 mm 8 mps 733 mmHg 32%
    02:00 +23°C° 0 mm 8 mps 733 mmHg 32%
    03:00 +22°C° 0 mm 9 mps 733 mmHg 32%
    04:00 +22°C° 0 mm 9 mps 733 mmHg 33%
    05:00 +22°C° 0 mm 9 mps 733 mmHg 33%
    06:00 +22°C° 0 mm 9 mps 734 mmHg 33%
    07:00 +21°C° 0 mm 9 mps 734 mmHg 34%
    14:00 +33°C° 0 mm 3 mps 732 mmHg 30%
    15:00 +32°C° 0 mm 2 mps 732 mmHg 32%
    16:00 +32°C° 0 mm 2 mps 731 mmHg 34%
    17:00 +30°C° 0 mm 3 mps 732 mmHg 35%
    18:00 +29°C° 0 mm 3 mps 732 mmHg 37%
    19:00 +28°C° 0 mm 4 mps 732 mmHg 38%
    20:00 +28°C° 0 mm 5 mps 732 mmHg 35%
    21:00 +28°C° 0 mm 6 mps 733 mmHg 31%
    22:00 +28°C° 0 mm 8 mps 733 mmHg 28%
    23:00 +27°C° 0 mm 8 mps 733 mmHg 28%

    22 Febrero, Sábado

    Tiempo Temperatura Precipitaciones Viento Presión Humedad
    00:00 +27°C° 0 mm 8 mps 733 mmHg 28%
    01:00 +26°C° 0 mm 9 mps 733 mmHg 29%
    02:00 +26°C° 0 mm 9 mps 733 mmHg 28%
    03:00 +26°C° 0 mm 9 mps 733 mmHg 28%
    04:00 +26°C° 0 mm 9 mps 733 mmHg 28%
    05:00 +24°C° 0 mm 9 mps 733 mmHg 28%
    06:00 +24°C° 0 mm 9 mps 734 mmHg 29%
    07:00 +24°C° 0 mm 9 mps 734 mmHg 29%
    08:00 +26°C° 0 mm 9 mps 735 mmHg 28%
    09:00 +28°C° 0 mm 8 mps 735 mmHg 27%
    10:00 +29°C° 0 mm 8 mps 735 mmHg 25%
    11:00 +30°C° 0 mm 7 mps 735 mmHg 26%
    12:00 +32°C° 0 mm 6 mps 734 mmHg 26%
    13:00 +34°C° 0 mm 5 mps 733 mmHg 27%
    14:00 +34°C° 0 mm 5 mps 733 mmHg 26%
    15:00 +34°C° 0 mm 4 mps 732 mmHg 26%
    16:00 +35°C° 0 mm 4 mps 732 mmHg 26%
    17:00 +34°C° 0 mm 5 mps 732 mmHg 24%
    18:00 +32°C° 0 mm 6 mps 733 mmHg 23%
    19:00 +31°C° 0 mm 8 mps 733 mmHg 22%
    20:00 +29°C° 0 mm 8 mps 734 mmHg 22%
    21:00 +29°C° 0 mm 9 mps 734 mmHg 22%
    22:00 +28°C° 0 mm 9 mps 735 mmHg 22%
    23:00 +27°C° 0 mm 9 mps 735 mmHg 23%
    Mostrar más